Regional Weather Roundup
Issued by NWS

Home | Current Version | Previous Version | Graphics & Text | Print | Product List | Glossary On
Versions: 1 2 3 4 5 6 7 8 9 10 11 12 13 14 15 16 17 18 19 20 21 22 23 24 25 26 27
000
ASUS45 KCYS 251410
RWRWY

WYOMING REGIONAL WEATHER ROUNDUP
NATIONAL WEATHER SERVICE CHEYENNE WY
800 AM MDT THU MAY 25 2017

NOTE:  "FAIR" INDICATES FEW OR NO CLOUDS BELOW 12,000 FEET
WITH NO SIGNIFICANT WEATHER AND/OR OBSTRUCTIONS TO VISIBILITY.

WYZ001-251500-
YELLOWSTONE NATIONAL PARK

CITY           SKY/WX    TMP DP  RH WIND       PRES   REMARKS
LK YELLOWSTONE   N/A     32  16  51 CALM      29.76R
W YELLOWSTONE  NOT AVBL

$$
WYZ002>013-054>058-071-098>099-251500-
NORTHERN WYOMING

CITY           SKY/WX    TMP DP  RH WIND       PRES   REMARKS
JACKSON        SUNNY     43  18  36 CALM      29.73R
CODY           FAIR      44  27  51 NE3       29.64R
GREYBULL       FAIR      55  17  22 NW15      29.60R
WORLAND        FAIR      53  23  31 NW10      29.61R
SHERIDAN       FAIR      54  30  40 N9        29.58S
BUFFALO        FAIR      50  24  36 VRB6      29.60S
GILLETTE       CLOUDY    50  31  48 NW9       29.57S
HULETT         FAIR      50  32  50 SW6       29.58S
NEWCASTLE      FAIR      50  37  62 NW12G21   29.57S

$$
WYZ014>020-022>026-101>103-251500-
CENTRAL WYOMING

CITY           SKY/WX    TMP DP  RH WIND       PRES   REMARKS
BIG PINEY      FAIR      42  30  62 NW10      29.74R
PINEDALE       FAIR      41  32  70 NE6       29.74S
DUBOIS         FAIR      41  14  33 NW12      29.68R
LANDER         FAIR      48  24  39 E7        29.62R
RIVERTON       FAIR      50  21  32 N14       29.63R
CASPER         CLOUDY    50  47  89 W8        29.60R
DOUGLAS        FAIR      50  44  80 CALM      29.59R

$$
WYZ021-027>030-104>119-251500-
SOUTHERN WYOMING

CITY           SKY/WX    TMP DP  RH WIND       PRES   REMARKS
EVANSTON       LGT RAIN  42  40  92 SW10      29.77F
KEMMERER         N/A     41  36  81 W12       29.76F
FORT BRIDGER   CLOUDY    43  42  98 S9        29.79F
ROCK SPRINGS   CLOUDY    42  37  82 SW15      29.74F
DIXON            N/A     46  37  71 CALM      29.81R
RAWLINS        CLOUDY    44  35  70 SW14      29.73R
LARAMIE        FAIR      53  41  63 SW7       29.68R
CHEYENNE       FAIR      54  43  66 W6        29.63S
TORRINGTON     FAIR      57  43  59 N5        29.54S
PINE BLUFFS    FAIR      59  46  63 CALM      29.59F

$$




USA.gov is the U.S. government's official web portal to all federal, state and local government web resources and services.